| time (UTC) | temp F | wind direction | speed MPH | gust MPH | rain 1hr in | rain 24hr in | rain mn in | humidity % | barometer mb |
| 20260510203539 | 55 | 85 | 0.0 | 0.0 | 0.00 | 0.00 | 0.00 | 70 | 1009.3 |
| 20260510203038 | 55 | 85 | 0.0 | 0.0 | 0.00 | 0.00 | 0.00 | 70 | 1009.3 |
| 20260510202537 | 56 | 85 | 0.0 | 0.0 | 0.00 | 0.00 | 0.00 | 70 | 1009.3 |
| 20260510202038 | 55 | 85 | 0.0 | 0.0 | 0.00 | 0.00 | 0.00 | 70 | 1009.4 |
| 20260510201539 | 55 | 85 | 0.0 | 0.0 | 0.00 | 0.00 | 0.00 | 71 | 1009.6 |
| 20260510201037 | 55 | 85 | 0.0 | 0.0 | 0.00 | 0.00 | 0.00 | 72 | 1009.7 |
| 20260510200537 | 55 | 85 | 0.0 | 0.0 | 0.00 | 0.00 | 0.00 | 71 | 1009.6 |
| 20260510200036 | 55 | 85 | 0.0 | 2.0 | 0.00 | 0.00 | 0.00 | 71 | 1009.6 |
| 20260510195536 | 55 | 85 | 0.0 | 2.0 | 0.00 | 0.00 | 0.00 | 71 | 1009.6 |
| 20260510195038 | 55 | 85 | 0.0 | 2.0 | 0.00 | 0.00 | 0.00 | 72 | 1009.6 |
| 20260510194543 | 55 | 85 | 0.0 | 1.0 | 0.00 | 0.00 | 0.00 | 71 | 1009.6 |
| 20260510194036 | 56 | 85 | 0.0 | 2.0 | 0.00 | 0.00 | 0.00 | 71 | 1009.6 |
| 20260510193535 | 56 | 85 | 0.0 | 3.0 | 0.00 | 0.00 | 0.00 | 70 | 1009.6 |
| 20260510193034 | 56 | 86 | 0.0 | 3.0 | 0.00 | 0.00 | 0.00 | 70 | 1009.7 |
| 20260510192534 | 56 | 88 | 0.0 | 3.0 | 0.00 | 0.00 | 0.00 | 70 | 1009.7 |
| 20260510192033 | 56 | 88 | 0.0 | 2.0 | 0.00 | 0.00 | 0.00 | 69 | 1009.6 |
| 20260510191555 | 56 | 88 | 0.0 | 2.0 | 0.00 | 0.00 | 0.00 | 69 | 1009.7 |
| 20260510191032 | 56 | 90 | 0.0 | 0.0 | 0.00 | 0.00 | 0.00 | 70 | 1009.8 |
| 20260510190532 | 56 | 90 | 0.0 | 0.0 | 0.00 | 0.00 | 0.00 | 70 | 1009.9 |
| 20260510190041 | 57 | 90 | 0.0 | 0.0 | 0.00 | 0.00 | 0.00 | 70 | 1009.9 |
| 20260510185533 | 57 | 90 | 0.0 | 5.0 | 0.00 | 0.00 | 0.00 | 70 | 1009.9 |
| 20260510185032 | 57 | 90 | 0.0 | 5.0 | 0.00 | 0.00 | 0.00 | 69 | 1009.9 |
| 20260510184532 | 57 | 67 | 0.0 | 3.0 | 0.00 | 0.00 | 0.00 | 69 | 1009.9 |
| 20260510184034 | 57 | 115 | 0.0 | 0.0 | 0.00 | 0.00 | 0.00 | 69 | 1009.8 |
| 20260510183532 | 57 | 116 | 0.0 | 0.0 | 0.00 | 0.00 | 0.00 | 69 | 1009.8 |
| 20260510183032 | 57 | 117 | 0.0 | 0.0 | 0.00 | 0.00 | 0.00 | 69 | 1009.9 |
| 20260510182531 | 57 | 117 | 0.0 | 0.0 | 0.00 | 0.00 | 0.00 | 69 | 1009.9 |
| 20260510182031 | 58 | 117 | 0.0 | 0.0 | 0.00 | 0.00 | 0.00 | 69 | 1009.9 |
| 20260510181531 | 58 | 117 | 0.0 | 0.0 | 0.00 | 0.00 | 0.00 | 69 | 1009.9 |
| 20260510181030 | 58 | 117 | 0.0 | 0.0 | 0.00 | 0.00 | 0.00 | 68 | 1009.9 |
| 20260510180533 | 58 | 121 | 0.0 | 0.0 | 0.00 | 0.00 | 0.00 | 68 | 1009.9 |
| 20260510180034 | 58 | 121 | 0.0 | 0.0 | 0.00 | 0.00 | 0.00 | 68 | 1009.9 |
| 20260510175529 | 59 | 121 | 0.0 | 2.0 | 0.00 | 0.00 | 0.00 | 68 | 1010.1 |
| 20260510175032 | 59 | 121 | 0.0 | 2.0 | 0.00 | 0.00 | 0.00 | 67 | 1010.1 |
| 20260510174528 | 59 | 121 | 0.0 | 0.0 | 0.00 | 0.00 | 0.00 | 66 | 1010.4 |
| 20260510174028 | 60 | 121 | 0.0 | 0.0 | 0.00 | 0.00 | 0.00 | 66 | 1010.2 |
| 20260510173529 | 61 | 121 | 0.0 | 0.0 | 0.00 | 0.00 | 0.00 | 66 | 1010.2 |
| 20260510173027 | 61 | 121 | 0.0 | 1.0 | 0.00 | 0.00 | 0.00 | 65 | 1010.3 |
| 20260510172526 | 62 | 121 | 0.0 | 1.0 | 0.00 | 0.00 | 0.00 | 65 | 1010.3 |
| 20260510172029 | 62 | 121 | 0.0 | 2.0 | 0.00 | 0.00 | 0.00 | 66 | 1010.5 |
| 20260510171525 | 62 | 121 | 0.0 | 2.0 | 0.00 | 0.00 | 0.00 | 62 | 1010.4 |
| 20260510171024 | 63 | 123 | 0.0 | 0.0 | 0.00 | 0.00 | 0.00 | 61 | 1010.5 |
| 20260510170526 | 63 | 191 | 0.0 | 0.0 | 0.00 | 0.00 | 0.00 | 63 | 1010.8 |
| 20260510170028 | 63 | 191 | 0.0 | 5.0 | 0.00 | 0.00 | 0.00 | 62 | 1010.8 |
| 20260510165523 | 63 | 175 | 1.0 | 5.0 | 0.00 | 0.00 | 0.00 | 61 | 1010.8 |
| 20260510165024 | 63 | 165 | 0.0 | 4.0 | 0.00 | 0.00 | 0.00 | 60 | 1010.9 |
| 20260510164523 | 63 | 188 | 0.0 | 3.0 | 0.00 | 0.00 | 0.00 | 61 | 1010.9 |
| 20260510164022 | 64 | 186 | 0.0 | 4.0 | 0.00 | 0.00 | 0.00 | 60 | 1010.9 |
| 20260510163521 | 64 | 186 | 0.0 | 4.0 | 0.00 | 0.00 | 0.00 | 59 | 1010.9 |
| 20260510163020 | 64 | 207 | 0.0 | 4.0 | 0.00 | 0.00 | 0.00 | 62 | 1011.0 |
| 20260510162521 | 64 | 185 | 0.0 | 4.0 | 0.00 | 0.00 | 0.00 | 61 | 1011.1 |
| 20260510162019 | 64 | 182 | 0.0 | 7.0 | 0.00 | 0.00 | 0.00 | 61 | 1011.2 |
| 20260510161523 | 64 | 179 | 3.0 | 7.0 | 0.00 | 0.00 | 0.00 | 58 | 1011.3 |
| 20260510161019 | 65 | 170 | 1.0 | 4.0 | 0.00 | 0.00 | 0.00 | 59 | 1011.2 |
| 20260510160523 | 65 | 94 | 1.0 | 4.0 | 0.00 | 0.00 | 0.00 | 59 | 1011.4 |
| 20260510160018 | 65 | 208 | 1.0 | 3.0 | 0.00 | 0.00 | 0.00 | 59 | 1011.5 |
| 20260510155618 | 66 | 222 | 1.0 | 3.0 | 0.00 | 0.00 | 0.00 | 58 | 1011.5 |
| 20260510155017 | 66 | 227 | 0.0 | 3.0 | 0.00 | 0.00 | 0.00 | 60 | 1011.7 |
| 20260510154518 | 66 | 269 | 1.0 | 3.0 | 0.00 | 0.00 | 0.00 | 60 | 1011.5 |
| 20260510154021 | 65 | 278 | 1.0 | 5.0 | 0.00 | 0.00 | 0.00 | 59 | 1011.7 |
| 20260510153520 | 65 | 227 | 1.0 | 5.0 | 0.00 | 0.00 | 0.00 | 60 | 1011.7 |
| 20260510153018 | 66 | 154 | 2.0 | 6.0 | 0.00 | 0.00 | 0.00 | 58 | 1011.7 |
| 20260510152514 | 65 | 78 | 0.0 | 4.0 | 0.00 | 0.00 | 0.00 | 61 | 1011.7 |
| 20260510152013 | 65 | 215 | 0.0 | 4.0 | 0.00 | 0.00 | 0.00 | 59 | 1011.8 |
| 20260510151514 | 65 | 228 | 1.0 | 7.0 | 0.00 | 0.00 | 0.00 | 60 | 1011.9 |
| 20260510151014 | 65 | 144 | 1.0 | 7.0 | 0.00 | 0.00 | 0.00 | 57 | 1011.9 |
| 20260510150513 | 66 | 153 | 2.0 | 5.0 | 0.00 | 0.00 | 0.00 | 59 | 1012.0 |
| 20260510150012 | 66 | 250 | 2.0 | 5.0 | 0.00 | 0.00 | 0.00 | 60 | 1012.1 |
| 20260510145513 | 65 | 197 | 1.0 | 5.0 | 0.00 | 0.00 | 0.00 | 59 | 1012.2 |
| 20260510145011 | 65 | 244 | 1.0 | 5.0 | 0.00 | 0.00 | 0.00 | 62 | 1012.2 |
| 20260510144516 | 65 | 158 | 1.0 | 5.0 | 0.00 | 0.00 | 0.00 | 59 | 1012.3 |
| 20260510144011 | 65 | 205 | 0.0 | 5.0 | 0.00 | 0.00 | 0.00 | 61 | 1012.2 |
| 20260510143510 | 64 | 153 | 1.0 | 6.0 | 0.00 | 0.00 | 0.00 | 62 | 1012.3 |
| 20260510143018 | 65 | 195 | 2.0 | 6.0 | 0.00 | 0.00 | 0.00 | 61 | 1012.3 |
| 20260510142512 | 65 | 161 | 2.0 | 6.0 | 0.00 | 0.00 | 0.00 | 61 | 1012.4 |
| 20260510142009 | 65 | 140 | 2.0 | 5.0 | 0.00 | 0.00 | 0.00 | 65 | 1012.5 |
| 20260510141508 | 65 | 159 | 3.0 | 6.0 | 0.00 | 0.00 | 0.00 | 61 | 1012.5 |
| 20260510141008 | 65 | 162 | 2.0 | 7.0 | 0.00 | 0.00 | 0.00 | 60 | 1012.6 |
| 20260510140507 | 65 | 217 | 1.0 | 7.0 | 0.00 | 0.00 | 0.00 | 58 | 1012.6 |
| 20260510140006 | 65 | 273 | 1.0 | 4.0 | 0.00 | 0.00 | 0.00 | 61 | 1012.8 |
| 20260510135507 | 65 | 131 | 1.0 | 4.0 | 0.00 | 0.00 | 0.00 | 61 | 1012.9 |
| 20260510135005 | 65 | 268 | 2.0 | 4.0 | 0.00 | 0.00 | 0.00 | 59 | 1012.9 |
| 20260510134505 | 65 | 242 | 1.0 | 5.0 | 0.00 | 0.00 | 0.00 | 62 | 1013.0 |
| 20260510134003 | 65 | 88 | 2.0 | 7.0 | 0.00 | 0.00 | 0.00 | 58 | 1013.0 |
| 20260510133502 | 65 | 147 | 1.0 | 7.0 | 0.00 | 0.00 | 0.00 | 61 | 1013.2 |
| 20260510133003 | 65 | 215 | 3.0 | 7.0 | 0.00 | 0.00 | 0.00 | 61 | 1013.1 |
| 20260510132502 | 65 | 214 | 2.0 | 4.0 | 0.00 | 0.00 | 0.00 | 63 | 1013.2 |
| 20260510132003 | 64 | 267 | 1.0 | 4.0 | 0.00 | 0.00 | 0.00 | 61 | 1013.2 |
| 20260510131501 | 64 | 257 | 1.0 | 6.0 | 0.00 | 0.00 | 0.00 | 61 | 1013.3 |
| 20260510131000 | 64 | 186 | 1.0 | 7.0 | 0.00 | 0.00 | 0.00 | 61 | 1013.5 |
| 20260510130600 | 64 | 167 | 2.0 | 7.0 | 0.00 | 0.00 | 0.00 | 62 | 1013.4 |
| 20260510130059 | 64 | 272 | 1.0 | 7.0 | 0.00 | 0.00 | 0.00 | 63 | 1013.5 |
| 20260510125558 | 64 | 264 | 3.0 | 7.0 | 0.00 | 0.00 | 0.00 | 64 | 1013.6 |
| 20260510125056 | 63 | 134 | 2.0 | 7.0 | 0.00 | 0.00 | 0.00 | 62 | 1013.7 |
| 20260510124611 | 63 | 199 | 3.0 | 7.0 | 0.00 | 0.00 | 0.00 | 62 | 1013.8 |
| 20260510124055 | 63 | 219 | 3.0 | 7.0 | 0.00 | 0.00 | 0.00 | 66 | 1013.8 |
| 20260510123554 | 63 | 244 | 2.0 | 7.0 | 0.00 | 0.00 | 0.00 | 65 | 1013.8 |
| 20260510123054 | 63 | 246 | 1.0 | 6.0 | 0.00 | 0.00 | 0.00 | 64 | 1013.9 |
| 20260510122552 | 63 | 220 | 2.0 | 8.0 | 0.00 | 0.00 | 0.00 | 67 | 1014.1 |
| 20260510122052 | 63 | 262 | 3.0 | 7.0 | 0.00 | 0.00 | 0.00 | 66 | 1014.1 |
| 20260510121551 | 62 | 193 | 2.0 | 7.0 | 0.00 | 0.00 | 0.00 | 66 | 1014.2 |
| 20260510121052 | 62 | 176 | 3.0 | 7.0 | 0.00 | 0.00 | 0.00 | 64 | 1014.4 |
| 20260510120549 | 62 | 274 | 3.0 | 7.0 | 0.00 | 0.00 | 0.00 | 68 | 1014.4 |
| 20260510120050 | 62 | 188 | 2.0 | 7.0 | 0.00 | 0.00 | 0.00 | 69 | 1014.5 |
| 20260510115549 | 61 | 232 | 1.0 | 7.0 | 0.00 | 0.00 | 0.00 | 67 | 1014.5 |
| 20260510115049 | 62 | 236 | 4.0 | 7.0 | 0.00 | 0.00 | 0.00 | 66 | 1014.4 |
| 20260510114548 | 62 | 238 | 2.0 | 7.0 | 0.00 | 0.00 | 0.00 | 67 | 1014.4 |
| 20260510114048 | 62 | 137 | 2.0 | 7.0 | 0.00 | 0.00 | 0.00 | 67 | 1014.6 |
| 20260510113546 | 62 | 143 | 3.0 | 7.0 | 0.00 | 0.00 | 0.00 | 65 | 1014.7 |
| 20260510113046 | 62 | 253 | 1.0 | 6.0 | 0.00 | 0.00 | 0.00 | 73 | 1014.6 |
| 20260510112646 | 61 | 137 | 1.0 | 7.0 | 0.00 | 0.00 | 0.00 | 65 | 1014.8 |
| 20260510112045 | 61 | 216 | 2.0 | 7.0 | 0.00 | 0.00 | 0.00 | 69 | 1014.7 |
| 20260510111544 | 62 | 233 | 2.0 | 7.0 | 0.00 | 0.00 | 0.00 | 68 | 1014.9 |
| 20260510111044 | 62 | 208 | 2.0 | 5.0 | 0.00 | 0.00 | 0.00 | 70 | 1014.9 |
| 20260510110542 | 62 | 252 | 3.0 | 6.0 | 0.00 | 0.00 | 0.00 | 68 | 1015.0 |
| 20260510110047 | 61 | 199 | 3.0 | 9.0 | 0.00 | 0.00 | 0.00 | 71 | 1014.9 |
| 20260510105540 | 61 | 179 | 2.0 | 9.0 | 0.00 | 0.00 | 0.00 | 73 | 1015.1 |
| 20260510105039 | 60 | 150 | 3.0 | 8.0 | 0.00 | 0.00 | 0.00 | 70 | 1015.1 |
| 20260510104539 | 60 | 149 | 3.0 | 8.0 | 0.00 | 0.00 | 0.00 | 70 | 1015.3 |
| 20260510104040 | 59 | 291 | 3.0 | 8.0 | 0.00 | 0.00 | 0.00 | 69 | 1015.3 |
| 20260510103535 | 59 | 204 | 2.0 | 8.0 | 0.00 | 0.00 | 0.00 | 71 | 1015.4 |
| 20260510103035 | 59 | 126 | 3.0 | 7.0 | 0.00 | 0.00 | 0.00 | 72 | 1015.3 |
| 20260510102534 | 59 | 153 | 4.0 | 7.0 | 0.00 | 0.00 | 0.00 | 70 | 1015.5 |
| 20260510102035 | 59 | 188 | 0.0 | 7.0 | 0.00 | 0.00 | 0.00 | 71 | 1015.5 |
| 20260510101534 | 59 | 157 | 3.0 | 7.0 | 0.00 | 0.00 | 0.00 | 71 | 1015.6 |
| 20260510101033 | 59 | 250 | 1.0 | 8.0 | 0.00 | 0.00 | 0.00 | 73 | 1015.6 |
| 20260510100533 | 59 | 225 | 4.0 | 7.0 | 0.00 | 0.00 | 0.00 | 69 | 1015.7 |
| 20260510100030 | 59 | 197 | 3.0 | 8.0 | 0.00 | 0.00 | 0.00 | 76 | 1015.7 |
| 20260510095529 | 58 | 144 | 3.0 | 8.0 | 0.00 | 0.00 | 0.00 | 71 | 1015.8 |
| 20260510095029 | 58 | 139 | 4.0 | 8.0 | 0.00 | 0.00 | 0.00 | 71 | 1015.7 |
| 20260510094543 | 58 | 211 | 3.0 | 8.0 | 0.00 | 0.00 | 0.00 | 72 | 1015.8 |
| 20260510094026 | 58 | 221 | 3.0 | 7.0 | 0.00 | 0.00 | 0.00 | 70 | 1015.8 |
| 20260510093527 | 57 | 296 | 2.0 | 9.0 | 0.00 | 0.00 | 0.00 | 71 | 1015.8 |
| 20260510093029 | 58 | 148 | 4.0 | 9.0 | 0.00 | 0.00 | 0.00 | 71 | 1016.0 |
| 20260510092526 | 58 | 211 | 2.0 | 4.0 | 0.00 | 0.00 | 0.00 | 72 | 1016.1 |
| 20260510092021 | 57 | 211 | 2.0 | 5.0 | 0.00 | 0.00 | 0.00 | 75 | 1016.0 |
| 20260510091525 | 57 | 203 | 0.0 | 5.0 | 0.00 | 0.00 | 0.00 | 75 | 1016.2 |
| 20260510091019 | 56 | 166 | 1.0 | 5.0 | 0.00 | 0.00 | 0.00 | 74 | 1016.2 |
| 20260510090518 | 56 | 156 | 1.0 | 9.0 | 0.00 | 0.00 | 0.00 | 75 | 1016.2 |
| 20260510090019 | 56 | 208 | 3.0 | 8.0 | 0.00 | 0.00 | 0.00 | 75 | 1016.2 |
| 20260510085516 | 55 | 194 | 3.0 | 8.0 | 0.00 | 0.00 | 0.00 | 75 | 1016.4 |
| 20260510085016 | 55 | 174 | 4.0 | 8.0 | 0.00 | 0.00 | 0.00 | 74 | 1016.4 |
| 20260510084514 | 55 | 196 | 3.0 | 8.0 | 0.00 | 0.00 | 0.00 | 74 | 1016.4 |
| 20260510084013 | 55 | 198 | 3.0 | 8.0 | 0.00 | 0.00 | 0.00 | 76 | 1016.5 |
| 20260510083512 | 55 | 110 | 4.0 | 8.0 | 0.00 | 0.00 | 0.00 | 74 | 1016.6 |
| 20260510083010 | 54 | 146 | 3.0 | 6.0 | 0.00 | 0.00 | 0.00 | 73 | 1016.5 |
| 20260510082509 | 54 | 101 | 2.0 | 6.0 | 0.00 | 0.00 | 0.00 | 75 | 1016.6 |
| 20260510082007 | 53 | 154 | 1.0 | 10.0 | 0.00 | 0.00 | 0.00 | 76 | 1016.6 |
| 20260510081509 | 53 | 167 | 5.0 | 10.0 | 0.00 | 0.00 | 0.00 | 73 | 1016.7 |
| 20260510081005 | 53 | 233 | 2.0 | 11.0 | 0.00 | 0.00 | 0.00 | 76 | 1016.7 |
| 20260510080504 | 53 | 175 | 3.0 | 11.0 | 0.00 | 0.00 | 0.00 | 74 | 1016.8 |
| 20260510080002 | 52 | 195 | 3.0 | 9.0 | 0.00 | 0.00 | 0.00 | 75 | 1016.9 |
| 20260510075502 | 52 | 219 | 4.0 | 9.0 | 0.00 | 0.00 | 0.00 | 76 | 1016.7 |
| 20260510075101 | 52 | 188 | 5.0 | 9.0 | 0.00 | 0.00 | 0.00 | 75 | 1016.8 |
| 20260510074600 | 52 | 134 | 3.0 | 8.0 | 0.00 | 0.00 | 0.00 | 75 | 1016.9 |
| 20260510074057 | 52 | 198 | 3.0 | 8.0 | 0.00 | 0.00 | 0.00 | 76 | 1016.9 |
| 20260510073556 | 52 | 186 | 2.0 | 8.0 | 0.00 | 0.00 | 0.00 | 77 | 1016.9 |
| 20260510073054 | 52 | 140 | 3.0 | 9.0 | 0.00 | 0.00 | 0.00 | 76 | 1016.9 |
| 20260510072553 | 51 | 172 | 4.0 | 9.0 | 0.00 | 0.00 | 0.00 | 78 | 1017.0 |
| 20260510072052 | 51 | 159 | 3.0 | 8.0 | 0.00 | 0.00 | 0.00 | 78 | 1017.2 |
| 20260510071554 | 51 | 229 | 3.0 | 6.0 | 0.00 | 0.00 | 0.00 | 78 | 1017.2 |
| 20260510071049 | 51 | 176 | 2.0 | 11.0 | 0.00 | 0.00 | 0.00 | 79 | 1017.1 |
| 20260510070552 | 51 | 188 | 3.0 | 11.0 | 0.00 | 0.00 | 0.00 | 78 | 1017.2 |
| 20260510070046 | 51 | 161 | 1.0 | 9.0 | 0.00 | 0.00 | 0.00 | 78 | 1017.2 |
| 20260510065545 | 50 | 175 | 1.0 | 8.0 | 0.00 | 0.00 | 0.00 | 79 | 1017.3 |
| 20260510065043 | 50 | 202 | 1.0 | 13.0 | 0.00 | 0.00 | 0.00 | 79 | 1017.3 |
| 20260510064541 | 50 | 178 | 0.0 | 13.0 | 0.00 | 0.00 | 0.00 | 80 | 1017.4 |
| 20260510064040 | 50 | 143 | 2.0 | 8.0 | 0.00 | 0.00 | 0.00 | 80 | 1017.6 |
| 20260510063540 | 50 | 163 | 1.0 | 6.0 | 0.00 | 0.00 | 0.00 | 81 | 1017.5 |
| 20260510063037 | 49 | 43 | 3.0 | 6.0 | 0.00 | 0.00 | 0.00 | 80 | 1017.7 |
| 20260510062538 | 49 | 141 | 2.0 | 8.0 | 0.00 | 0.00 | 0.00 | 80 | 1017.5 |
| 20260510062034 | 49 | 84 | 4.0 | 8.0 | 0.00 | 0.00 | 0.00 | 80 | 1017.6 |
| 20260510061533 | 49 | 123 | 2.0 | 7.0 | 0.00 | 0.00 | 0.00 | 80 | 1017.5 |
| 20260510061032 | 49 | 219 | 2.0 | 7.0 | 0.00 | 0.00 | 0.00 | 80 | 1017.6 |
| 20260510060530 | 49 | 97 | 0.0 | 10.0 | 0.00 | 0.00 | 0.00 | 82 | 1017.7 |
| 20260510060029 | 48 | 207 | 1.0 | 10.0 | 0.00 | 0.00 | 0.00 | 80 | 1017.8 |
| 20260510055528 | 48 | 173 | 0.0 | 6.0 | 0.00 | 0.00 | 0.00 | 82 | 1017.8 |
| 20260510055028 | 48 | 225 | 1.0 | 8.0 | 0.00 | 0.00 | 0.00 | 81 | 1017.8 |
| 20260510054526 | 48 | 87 | 0.0 | 8.0 | 0.00 | 0.00 | 0.00 | 82 | 1017.8 |
| 20260510054025 | 48 | 166 | 3.0 | 8.0 | 0.00 | 0.00 | 0.00 | 82 | 1017.7 |
| 20260510053525 | 48 | 175 | 1.0 | 4.0 | 0.00 | 0.00 | 0.00 | 82 | 1017.8 |
| 20260510053045 | 47 | 227 | 0.0 | 5.0 | 0.00 | 0.00 | 0.00 | 83 | 1017.8 |
| 20260510052525 | 47 | 83 | 1.0 | 5.0 | 0.00 | 0.00 | 0.00 | 83 | 1017.8 |
| 20260510052024 | 47 | 62 | 0.0 | 4.0 | 0.00 | 0.00 | 0.00 | 84 | 1017.8 |
| 20260510051526 | 47 | 59 | 1.0 | 5.0 | 0.00 | 0.00 | 0.00 | 84 | 1017.8 |
| 20260510051023 | 47 | 79 | 1.0 | 5.0 | 0.00 | 0.00 | 0.00 | 84 | 1017.8 |
| 20260510050523 | 47 | 167 | 1.0 | 4.0 | 0.00 | 0.00 | 0.00 | 84 | 1017.9 |
| 20260510050028 | 46 | 80 | 1.0 | 5.0 | 0.00 | 0.00 | 0.00 | 84 | 1017.9 |
| 20260510045522 | 46 | 77 | 2.0 | 5.0 | 0.00 | 0.00 | 0.00 | 84 | 1017.9 |
| 20260510045022 | 46 | 65 | 1.0 | 8.0 | 0.00 | 0.00 | 0.00 | 85 | 1017.9 |
| 20260510044522 | 46 | 83 | 1.0 | 8.0 | 0.00 | 0.00 | 0.00 | 85 | 1018.0 |
| 20260510044021 | 45 | 80 | 2.0 | 6.0 | 0.00 | 0.00 | 0.00 | 85 | 1017.9 |
| 20260510043520 | 45 | 69 | 2.0 | 6.0 | 0.00 | 0.00 | 0.00 | 85 | 1017.8 |
| 20260510043036 | 45 | 82 | 1.0 | 4.0 | 0.00 | 0.00 | 0.00 | 86 | 1017.8 |
| 20260510042518 | 45 | 5 | 2.0 | 4.0 | 0.00 | 0.00 | 0.00 | 85 | 1017.8 |
| 20260510042018 | 45 | 71 | 1.0 | 4.0 | 0.00 | 0.00 | 0.00 | 85 | 1017.9 |
| 20260510041525 | 45 | 76 | 2.0 | 4.0 | 0.00 | 0.00 | 0.00 | 85 | 1018.0 |
| 20260510041018 | 45 | 55 | 1.0 | 4.0 | 0.00 | 0.00 | 0.00 | 85 | 1017.9 |
| 20260510040518 | 45 | 136 | 2.0 | 4.0 | 0.00 | 0.00 | 0.00 | 86 | 1018.1 |
| 20260510040032 | 45 | 69 | 1.0 | 3.0 | 0.00 | 0.00 | 0.00 | 86 | 1018.0 |
| 20260510035516 | 45 | 73 | 1.0 | 4.0 | 0.00 | 0.00 | 0.00 | 85 | 1018.0 |
| 20260510035016 | 45 | 71 | 1.0 | 4.0 | 0.00 | 0.00 | 0.00 | 85 | 1017.9 |
| 20260510034614 | 45 | 63 | 1.0 | 3.0 | 0.00 | 0.00 | 0.00 | 85 | 1018.0 |
| 20260510034015 | 45 | 39 | 1.0 | 6.0 | 0.00 | 0.00 | 0.00 | 85 | 1017.9 |
| 20260510033512 | 45 | 53 | 1.0 | 4.0 | 0.00 | 0.00 | 0.00 | 85 | 1017.9 |
| 20260510033012 | 45 | 24 | 2.0 | 4.0 | 0.00 | 0.00 | 0.00 | 84 | 1017.9 |
| 20260510032514 | 46 | 57 | 1.0 | 3.0 | 0.00 | 0.00 | 0.00 | 85 | 1017.8 |
| 20260510032011 | 46 | 138 | 0.0 | 6.0 | 0.00 | 0.00 | 0.00 | 84 | 1017.8 |
| 20260510031511 | 46 | 95 | 2.0 | 6.0 | 0.00 | 0.00 | 0.00 | 84 | 1017.9 |
| 20260510031010 | 46 | 34 | 1.0 | 6.0 | 0.00 | 0.00 | 0.00 | 84 | 1017.7 |
| 20260510030509 | 46 | 11 | 2.0 | 5.0 | 0.00 | 0.00 | 0.00 | 84 | 1017.9 |
| 20260510030009 | 46 | 38 | 1.0 | 3.0 | 0.00 | 0.00 | 0.00 | 84 | 1017.9 |
| 20260510025508 | 46 | 32 | 1.0 | 4.0 | 0.00 | 0.00 | 0.00 | 84 | 1017.9 |
| 20260510025008 | 46 | 68 | 1.0 | 4.0 | 0.00 | 0.00 | 0.00 | 83 | 1018.1 |
| 20260510024507 | 46 | 76 | 1.0 | 4.0 | 0.00 | 0.00 | 0.00 | 83 | 1018.0 |
| 20260510024010 | 46 | 69 | 1.0 | 4.0 | 0.00 | 0.00 | 0.00 | 83 | 1018.1 |
| 20260510023506 | 46 | 66 | 1.0 | 4.0 | 0.00 | 0.00 | 0.00 | 84 | 1018.2 |
| 20260510023007 | 46 | 5 | 1.0 | 6.0 | 0.00 | 0.00 | 0.00 | 84 | 1018.3 |
| 20260510022505 | 46 | 93 | 2.0 | 4.0 | 0.00 | 0.00 | 0.00 | 83 | 1018.3 |
| 20260510022004 | 46 | 75 | 0.0 | 7.0 | 0.00 | 0.00 | 0.00 | 83 | 1018.2 |
| 20260510021514 | 46 | 89 | 2.0 | 7.0 | 0.00 | 0.00 | 0.00 | 83 | 1018.5 |
| 20260510021004 | 46 | 101 | 2.0 | 4.0 | 0.00 | 0.00 | 0.00 | 82 | 1018.6 |
| 20260510020502 | 46 | 59 | 1.0 | 4.0 | 0.00 | 0.00 | 0.00 | 82 | 1018.6 |
| 20260510020002 | 46 | 40 | 0.0 | 6.0 | 0.00 | 0.00 | 0.00 | 83 | 1018.7 |
| 20260510015505 | 46 | 82 | 1.0 | 6.0 | 0.00 | 0.00 | 0.00 | 83 | 1018.8 |
| 20260510015001 | 46 | 52 | 0.0 | 3.0 | 0.00 | 0.00 | 0.00 | 84 | 1018.8 |
| 20260510014503 | 46 | 45 | 0.0 | 3.0 | 0.00 | 0.00 | 0.00 | 84 | 1018.7 |
| 20260510014002 | 46 | 80 | 1.0 | 4.0 | 0.00 | 0.00 | 0.00 | 83 | 1018.7 |
| 20260510013502 | 46 | 80 | 1.0 | 5.0 | 0.00 | 0.00 | 0.00 | 83 | 1018.8 |
| 20260510013100 | 46 | 23 | 1.0 | 5.0 | 0.00 | 0.00 | 0.00 | 83 | 1018.6 |
| 20260510012600 | 46 | 56 | 1.0 | 4.0 | 0.00 | 0.00 | 0.00 | 83 | 1018.7 |
| 20260510012101 | 46 | 48 | 2.0 | 4.0 | 0.00 | 0.00 | 0.00 | 84 | 1018.9 |
| 20260510011559 | 46 | 61 | 1.0 | 5.0 | 0.00 | 0.00 | 0.00 | 84 | 1018.8 |
| 20260510011158 | 46 | 82 | 2.0 | 5.0 | 0.00 | 0.00 | 0.00 | 85 | 1018.9 |
| 20260510010557 | 46 | 59 | 2.0 | 4.0 | 0.00 | 0.00 | 0.00 | 84 | 1019.0 |
| 20260510010056 | 46 | 26 | 1.0 | 4.0 | 0.00 | 0.00 | 0.00 | 84 | 1019.1 |
| 20260510005555 | 46 | 339 | 1.0 | 4.0 | 0.00 | 0.00 | 0.00 | 84 | 1019.3 |
| 20260510005054 | 46 | 40 | 1.0 | 4.0 | 0.00 | 0.00 | 0.00 | 83 | 1019.4 |
| 20260510004559 | 46 | 53 | 1.0 | 4.0 | 0.00 | 0.00 | 0.00 | 83 | 1019.4 |
| 20260510004054 | 47 | 97 | 2.0 | 4.0 | 0.00 | 0.00 | 0.00 | 83 | 1019.4 |
| 20260510003554 | 47 | 88 | 0.0 | 4.0 | 0.00 | 0.00 | 0.00 | 82 | 1019.4 |
| 20260510003055 | 47 | 77 | 2.0 | 4.0 | 0.00 | 0.00 | 0.00 | 82 | 1019.5 |
| 20260510002552 | 47 | 47 | 1.0 | 4.0 | 0.00 | 0.00 | 0.00 | 82 | 1019.5 |
| 20260510002052 | 47 | 59 | 1.0 | 4.0 | 0.00 | 0.00 | 0.00 | 82 | 1019.6 |
| 20260510001552 | 47 | 69 | 2.0 | 4.0 | 0.00 | 0.00 | 0.00 | 82 | 1019.7 |
| 20260510001051 | 47 | 342 | 1.0 | 5.0 | 0.00 | 0.00 | 0.00 | 82 | 1019.7 |
| 20260510000554 | 46 | 69 | 2.0 | 5.0 | 0.00 | 0.00 | 0.00 | 83 | 1019.7 |
| 20260510000058 | 46 | 61 | 1.0 | 5.0 | 0.00 | 0.00 | 0.00 | 83 | 1019.6 |
| 20260509235553 | 46 | 343 | 1.0 | 5.0 | 0.00 | 0.00 | 0.00 | 83 | 1019.7 |
| 20260509235050 | 46 | 17 | 1.0 | 4.0 | 0.00 | 0.00 | 0.00 | 83 | 1019.7 |
| 20260509234550 | 46 | 53 | 1.0 | 4.0 | 0.00 | 0.00 | 0.00 | 83 | 1019.8 |
| 20260509234049 | 46 | 17 | 1.0 | 4.0 | 0.00 | 0.00 | 0.00 | 83 | 1019.8 |
| 20260509233548 | 46 | 311 | 1.0 | 3.0 | 0.00 | 0.00 | 0.00 | 83 | 1019.8 |
| 20260509233047 | 47 | 290 | 1.0 | 4.0 | 0.00 | 0.00 | 0.00 | 83 | 1019.9 |
| 20260509232548 | 47 | 12 | 1.0 | 5.0 | 0.00 | 0.00 | 0.00 | 83 | 1020.0 |
| 20260509232046 | 47 | 22 | 1.0 | 6.0 | 0.00 | 0.00 | 0.00 | 82 | 1020.1 |
| 20260509231546 | 47 | 287 | 1.0 | 6.0 | 0.00 | 0.00 | 0.00 | 83 | 1020.0 |
| 20260509231047 | 47 | 71 | 1.0 | 6.0 | 0.00 | 0.00 | 0.00 | 82 | 1020.0 |
| 20260509230544 | 47 | 9 | 1.0 | 4.0 | 0.00 | 0.00 | 0.00 | 82 | 1020.1 |
| 20260509230044 | 47 | 343 | 1.0 | 4.0 | 0.00 | 0.00 | 0.00 | 82 | 1020.1 |
| 20260509225544 | 47 | 44 | 1.0 | 4.0 | 0.00 | 0.00 | 0.00 | 82 | 1020.2 |
| 20260509225042 | 47 | 36 | 1.0 | 4.0 | 0.00 | 0.00 | 0.00 | 82 | 1020.2 |
| 20260509224543 | 47 | 99 | 1.0 | 4.0 | 0.00 | 0.00 | 0.00 | 82 | 1020.2 |
| 20260509224042 | 47 | 9 | 1.0 | 4.0 | 0.00 | 0.00 | 0.00 | 82 | 1020.1 |
| 20260509223542 | 47 | 103 | 2.0 | 6.0 | 0.00 | 0.00 | 0.00 | 82 | 1020.1 |
| 20260509223042 | 47 | 85 | 1.0 | 4.0 | 0.00 | 0.00 | 0.00 | 82 | 1020.2 |
| 20260509222541 | 48 | 40 | 0.0 | 3.0 | 0.00 | 0.00 | 0.00 | 82 | 1020.2 |
| 20260509222040 | 48 | 24 | 2.0 | 5.0 | 0.00 | 0.00 | 0.00 | 82 | 1020.3 |
| 20260509221540 | 47 | 78 | 2.0 | 5.0 | 0.00 | 0.00 | 0.00 | 82 | 1020.3 |
| 20260509221039 | 47 | 32 | 1.0 | 4.0 | 0.00 | 0.00 | 0.00 | 83 | 1020.4 |
| 20260509220538 | 47 | 52 | 0.0 | 3.0 | 0.00 | 0.00 | 0.00 | 83 | 1020.5 |
| 20260509220039 | 47 | 41 | 0.0 | 3.0 | 0.00 | 0.00 | 0.00 | 83 | 1020.5 |
| 20260509215537 | 47 | 44 | 1.0 | 4.0 | 0.00 | 0.00 | 0.00 | 83 | 1020.5 |
| 20260509215036 | 47 | 343 | 1.0 | 4.0 | 0.00 | 0.00 | 0.00 | 83 | 1020.5 |
| 20260509214547 | 47 | 44 | 0.0 | 3.0 | 0.00 | 0.00 | 0.00 | 83 | 1020.5 |
| 20260509214036 | 47 | 33 | 0.0 | 5.0 | 0.00 | 0.00 | 0.00 | 83 | 1020.4 |
| 20260509213536 | 47 | 142 | 1.0 | 6.0 | 0.00 | 0.00 | 0.00 | 82 | 1020.4 |
| 20260509213037 | 47 | 50 | 2.0 | 6.0 | 0.00 | 0.00 | 0.00 | 83 | 1020.5 |
| 20260509212635 | 47 | 42 | 1.0 | 4.0 | 0.00 | 0.00 | 0.00 | 84 | 1020.3 |
| 20260509212035 | 47 | 303 | 1.0 | 3.0 | 0.00 | 0.00 | 0.00 | 84 | 1020.3 |
| 20260509211535 | 47 | 38 | 1.0 | 3.0 | 0.00 | 0.00 | 0.00 | 84 | 1020.3 |
| 20260509211035 | 47 | 13 | 0.0 | 4.0 | 0.00 | 0.00 | 0.00 | 84 | 1020.5 |
| 20260509210535 | 47 | 170 | 0.0 | 3.0 | 0.00 | 0.00 | 0.00 | 85 | 1020.5 |
| 20260509210039 | 47 | 324 | 1.0 | 3.0 | 0.00 | 0.00 | 0.00 | 84 | 1020.5 |
| 20260509205536 | 48 | 269 | 0.0 | 4.0 | 0.00 | 0.00 | 0.00 | 85 | 1020.5 |
| 20260509205035 | 47 | 16 | 1.0 | 4.0 | 0.00 | 0.00 | 0.00 | 85 | 1020.5 |
| 20260509204536 | 48 | 269 | 0.0 | 3.0 | 0.00 | 0.00 | 0.00 | 85 | 1020.6 |
| 20260509204034 | 48 | 267 | 1.0 | 5.0 | 0.00 | 0.00 | 0.00 | 85 | 1020.6 |